[TLELIST]

  • This mailing list is a public mailing list - anyone may join or leave, at any time.
  • This mailing list is announce-only.

International Space Station (ISS) / Hubble Space Telescope (HST) / Chandra X-Ray Observatory Orbital Data via EMAIL

Privacy Policy:

Private list

Archived Messages

 

[TLELIST] Current TLEs

June 19th 2026 PDT

0 HST 1 20580U 90037B 26170.09908245 .00005359 00000-0 16756-3 0 9997 2 20580 28.4721 67.5085 0001724 162.4358 197.6298 15.30765373788864 0 ISS (ZARYA) 1 25544U 98067A 26170.06007799 .00009022 00000-0 16988-3 0 9992 2 25544 51.6331 290.8234 0004653 203.3119 156.7659 15.49309015572040 0 CXO 1 25867U 99040B 26172.02247085 .00000453 00000-0 00000-0 0 9998 2 25867 56.2474 116.4966 7828330 310.2765 0.2930 0.37807394 17335 ...Continue Reading

[TLELIST] Current TLEs

June 18th 2026 PDT

0 HST 1 20580U 90037B 26169.12115247 .00005032 00000-0 15694-3 0 9999 2 20580 28.4721 74.1921 0001767 152.2420 207.8270 15.30755230788710 0 ISS (ZARYA) 1 25544U 98067A 26169.15704105 .00009674 00000-0 18166-3 0 9998 2 25544 51.6334 295.2921 0004743 200.3344 159.7456 15.49293017571908 0 CXO 1 25867U 99040B 26172.02247085 .00000453 00000-0 00000-0 0 9998 2 25867 56.2474 116.4966 7828330 310.2765 0.2930 0.37807394 17335 ...Continue Reading

[TLELIST] Current TLEs

June 17th 2026 PDT

0 HST 1 20580U 90037B 26168.14321654 .00005620 00000-0 17616-3 0 9990 2 20580 28.4720 80.8753 0001816 141.8279 218.2446 15.30747004788561 0 ISS (ZARYA) 1 25544U 98067A 26168.18949189 .00009113 00000-0 17172-3 0 9997 2 25544 51.6332 300.0813 0004737 195.1146 164.9702 15.49273435571752 0 CXO 1 25867U 99040B 26169.37713324 .00000529 00000-0 00000-0 0 9990 2 25867 56.2189 116.5542 7835469 310.3049 0.1821 0.37804062 17322 ...Continue Reading

[TLELIST] Current TLEs

June 17th 2026 PDT

0 HST 1 20580U 90037B 26168.14321654 .00005620 00000-0 17616-3 0 9990 2 20580 28.4720 80.8753 0001816 141.8279 218.2446 15.30747004788561 0 ISS (ZARYA) 1 25544U 98067A 26168.18949189 .00009113 00000-0 17172-3 0 9997 2 25544 51.6332 300.0813 0004737 195.1146 164.9702 15.49273435571752 0 CXO 1 25867U 99040B 26169.37713324 .00000529 00000-0 00000-0 0 9990 2 25867 56.2189 116.5542 7835469 310.3049 0.1821 0.37804062 17322 ...Continue Reading

[TLELIST] Current TLEs

June 16th 2026 PDT

0 HST 1 20580U 90037B 26167.16527473 .00005381 00000-0 16841-3 0 9991 2 20580 28.4719 87.5586 0001853 131.7056 228.3698 15.30736864788416 0 ISS (ZARYA) 1 25544U 98067A 26167.09292088 .00007536 00000-0 14355-3 0 9992 2 25544 51.6337 305.5091 0004806 191.3253 168.7628 15.49253146571586 0 CXO 1 25867U 99040B 26169.37713324 .00000529 00000-0 00000-0 0 9990 2 25867 56.2189 116.5542 7835469 310.3049 0.1821 0.37804062 17322 ...Continue Reading

[TLELIST] Current TLEs

June 15th 2026 PDT

0 HST 1 20580U 90037B 26166.12212988 .00005845 00000-0 18362-3 0 9993 2 20580 28.4718 94.6872 0001878 120.6716 239.4066 15.30726834788259 0 ISS (ZARYA) 1 25544U 98067A 26166.18985271 .00007715 00000-0 14683-3 0 9997 2 25544 51.6338 309.9786 0004835 187.9159 172.1754 15.49238068571444 0 CXO 1 25867U 99040B 26166.73124906 .00000579 00000-0 00000-0 0 9994 2 25867 56.1776 116.6293 7842889 310.3072 0.0447 0.37804362 17312 ...Continue Reading

[TLELIST] Current TLEs

June 14th 2026 PDT

0 HST 1 20580U 90037B 26165.14417512 .00006344 00000-0 19999-3 0 9996 2 20580 28.4715 101.3706 0001912 110.8714 249.2086 15.30716351788104 0 ISS (ZARYA) 1 25544U 98067A 26165.09325831 .00008623 00000-0 16324-3 0 9999 2 25544 51.6335 315.4063 0004936 183.6835 176.4118 15.49219019571274 0 CXO 1 25867U 99040B 26166.73124906 .00000579 00000-0 00000-0 0 9994 2 25867 56.1776 116.6293 7842889 310.3072 0.0447 0.37804362 17312 ...Continue Reading

[TLELIST] Current TLEs

June 13th 2026 PDT

0 HST 1 20580U 90037B 26164.23141094 .00006133 00000-0 19317-3 0 9994 2 20580 28.4712 107.6084 0001932 101.0971 258.9842 15.30704754787962 0 ISS (ZARYA) 1 25544U 98067A 26164.12566316 .00008200 00000-0 15573-3 0 9993 2 25544 51.6335 320.1950 0004891 179.6545 180.4447 15.49201403571127 0 CXO 1 25867U 99040B 26166.73124906 .00000579 00000-0 00000-0 0 9994 2 25867 56.1776 116.6293 7842889 310.3072 0.0447 0.37804362 17312 ...Continue Reading

[TLELIST] Current TLEs

June 12th 2026 PDT

0 HST 1 20580U 90037B 26163.25344175 .00006001 00000-0 18892-3 0 9991 2 20580 28.4709 114.2921 0001952 91.9422 268.1398 15.30693075787818 0 ISS (ZARYA) 1 25544U 98067A 26162.96453450 .00008067 00000-0 15344-3 0 9994 2 25544 51.6334 325.9414 0004932 175.6343 184.4689 15.49182446570948 0 CXO 1 25867U 99040B 26164.08641897 .00000611 00000-0 00000+0 0 9999 2 25867 56.1211 116.7320 7849026 310.2825 0.0985 0.37806491 17304 ...Continue Reading

[TLELIST] Current TLEs

June 11th 2026 PDT

0 HST 1 20580U 90037B 26162.21026604 .00005021 00000-0 15696-3 0 9990 2 20580 28.4707 121.4212 0001970 81.6673 278.4146 15.30680019787654 0 ISS (ZARYA) 1 25544U 98067A 26162.12593356 .00002535 00000-0 53892-4 0 9997 2 25544 51.6353 330.0904 0005092 172.2857 187.8210 15.49161426570819 0 CXO 1 25867U 99040B 26164.08641897 .00000611 00000-0 00000+0 0 9999 2 25867 56.1211 116.7320 7849026 310.2825 0.0985 0.37806491 17304 ...Continue Reading